Torna al catalogo

THOR ABLESTAR DEB

AttivoLEO
NORAD 172·DEBRIS·🇺🇸 United States

Lanciato Jun 29, 1961 da Cape Canaveral Space Force Station

Loading…

Prossimi Passaggi (prossime 24 ore)

TLE

AggiornatoSource: Space-Track

Epoca: Sep 9, 2026, 15:34 UTC

1 00172U 61015AY  26252.64900048  .00000397  00000-0  59581-3 0  9991
2 00172  67.0697 334.7807 0130685   2.1353 358.0241 13.59315973216598

Traccia THOR ABLESTAR DEB in tempo reale con AllMySat

Download on the App Store